Time_in_sec,gx,gy,gz
1314272302.35260296,0.03037798,-0.01557255,-0.99941717
1314272302.40075684,0.03027769,-0.01546935,-0.99942181
1314272302.45249557,0.03032380,-0.01558276,-0.99941865
1314272302.50153494,0.03068761,-0.01550312,-0.99940879
1314272302.55251694,0.03148016,-0.01525447,-0.99938796
1314272302.60061312,0.03161184,-0.01551483,-0.99937980
1314272302.65350032,0.03196690,-0.01556161,-0.99936778
1314272302.69352889,0.03207889,-0.01579973,-0.99936045
1314272302.75254917,0.03213349,-0.01591152,-0.99935692
1314272302.80047703,0.03268110,-0.01619914,-0.99933455
1314272302.85246587,0.03275682,-0.01586686,-0.99933740
1314272302.90239072,0.03281005,-0.01591977,-0.99933481
1314272302.95351696,0.03253856,-0.01617849,-0.99933953
1314272303.00151515,0.03273294,-0.01626332,-0.99933181
1314272303.05050111,0.03338142,-0.01680020,-0.99930147
1314272303.10480738,0.03339633,-0.01684292,-0.99930026
1314272303.15249300,0.03340083,-0.01680108,-0.99930081
1314272303.20192814,0.03336188,-0.01684267,-0.99930141
1314272303.25361085,0.03399378,-0.01715432,-0.99927481
1314272303.30270743,0.03419553,-0.01714728,-0.99926805
1314272303.35349679,0.03411435,-0.01706935,-0.99927216
1314272303.40558743,0.03423474,-0.01730326,-0.99926402
1314272303.45456052,0.03425059,-0.01713167,-0.99926643
1314272303.50487924,0.03433162,-0.01704187,-0.99926519
1314272303.55349278,0.03533618,-0.01897487,-0.99919533
1314272303.60447550,0.03549259,-0.01922209,-0.99918506
1314272303.65259099,0.03558997,-0.01932209,-0.99917967
1314272303.69425821,0.03570301,-0.01926455,-0.99917675
1314272303.75360012,0.03595473,-0.01942771,-0.99916456
1314272303.80454469,0.03503865,-0.02000653,-0.99918568
1314272303.85646796,0.03502880,-0.01995216,-0.99918712
1314272303.90593719,0.03493554,-0.01996586,-0.99919011
1314272303.94162488,0.03489486,-0.02003360,-0.99919017
1314272304.00446129,0.03497265,-0.02005794,-0.99918697
1314272304.05360937,0.03366328,-0.01991155,-0.99923486
1314272304.10197711,0.03370928,-0.02015392,-0.99922845
1314272304.15350389,0.03391565,-0.02016034,-0.99922134
1314272304.20147514,0.03376140,-0.02026894,-0.99922437
1314272304.25387764,0.03369440,-0.02019641,-0.99922810
1314272304.30559373,0.03258016,-0.01963807,-0.99927618
1314272304.35355544,0.03247217,-0.01975789,-0.99927733
1314272304.40447664,0.03264073,-0.01981544,-0.99927070
1314272304.45258713,0.03253771,-0.01977529,-0.99927485
1314272304.50445652,0.03274121,-0.01997493,-0.99926424
1314272304.55249023,0.03180946,-0.01883744,-0.99931642
1314272304.60160327,0.03187477,-0.01881512,-0.99931476
1314272304.65292072,0.03181095,-0.01889457,-0.99931529
1314272304.69364882,0.03179193,-0.01895992,-0.99931466
1314272304.75258374,0.03170985,-0.01896002,-0.99931727
1314272304.80171251,0.03149636,-0.01855797,-0.99933157
1314272304.85364389,0.03142768,-0.01863854,-0.99933223
1314272304.90167093,0.03139570,-0.01868474,-0.99933237
1314272304.95249438,0.03146872,-0.01850099,-0.99933349
1314272305.00458622,0.03131553,-0.01847719,-0.99933875
1314272305.05445790,0.03040540,-0.01858816,-0.99936479
1314272305.10152483,0.03040710,-0.01878467,-0.99936107
1314272305.15371871,0.03046738,-0.01873808,-0.99936011
1314272305.20448804,0.03050917,-0.01882668,-0.99935717
1314272305.25249195,0.03057392,-0.01865535,-0.99935840
1314272305.30155516,0.03081176,-0.01943487,-0.99933624
1314272305.35245204,0.03093575,-0.01943312,-0.99933244
1314272305.40059876,0.03061564,-0.01915918,-0.99934759
1314272305.45357704,0.03049551,-0.01921883,-0.99935012
1314272305.50153446,0.03043014,-0.01916695,-0.99935311
1314272305.55259609,0.03138094,-0.01971613,-0.99931302
1314272305.60046315,0.03146746,-0.01998634,-0.99930493
1314272305.65246844,0.03134129,-0.01973148,-0.99931396
1314272305.70161414,0.03139481,-0.01981163,-0.99931070
1314272305.75245690,0.03140621,-0.01987203,-0.99930914
1314272305.80155182,0.03233684,-0.02098077,-0.99925679
1314272305.85042977,0.03236998,-0.02105586,-0.99925414
1314272305.90055180,0.03251381,-0.02095850,-0.99925152
1314272305.94162655,0.03246546,-0.02102188,-0.99925176
1314272306.00147605,0.03239087,-0.02107926,-0.99925297
1314272306.05360985,0.03317172,-0.02126104,-0.99922350
1314272306.10197020,0.03314998,-0.02130979,-0.99922318
1314272306.14145470,0.03291991,-0.02116196,-0.99923393
1314272306.20160055,0.03289078,-0.02124794,-0.99923307
1314272306.25574684,0.03288508,-0.02153273,-0.99922716
1314272306.30148029,0.03314811,-0.02039768,-0.99924228
1314272306.35251069,0.03324562,-0.02037992,-0.99923940
1314272306.40446568,0.03331983,-0.02011857,-0.99924223
1314272306.45253301,0.03342452,-0.02026497,-0.99923577
1314272306.50457907,0.03346100,-0.02033656,-0.99923310
1314272306.55246258,0.03298719,-0.02080722,-0.99923916
1314272306.60486507,0.03304556,-0.02063947,-0.99924071
1314272306.65248632,0.03294960,-0.02068893,-0.99924286
1314272306.69361377,0.03319873,-0.02071525,-0.99923407
1314272306.75360346,0.03305188,-0.02066697,-0.99923994
1314272306.80448079,0.03334622,-0.02126261,-0.99921766
1314272306.85360765,0.03347989,-0.02123385,-0.99921380
1314272306.90444779,0.03349133,-0.02128748,-0.99921228
1314272306.95246744,0.03335141,-0.02139001,-0.99921477
1314272307.00463510,0.03324324,-0.02144646,-0.99921716
1314272307.04843593,0.03344152,-0.02028423,-0.99923481
1314272307.10494709,0.03343830,-0.02014153,-0.99923781
1314272307.15340590,0.03325940,-0.02001086,-0.99924640
1314272307.20448065,0.03312950,-0.02001009,-0.99925074
1314272307.25393343,0.03314771,-0.02006957,-0.99924894
1314272307.30195928,0.03383108,-0.01964388,-0.99923450
1314272307.35359359,0.03381443,-0.01945876,-0.99923868
1314272307.40445518,0.03367812,-0.01959149,-0.99924069
1314272307.45248508,0.03376734,-0.01932268,-0.99924291
1314272307.50175667,0.03355097,-0.01910601,-0.99925437
1314272307.55351925,0.03378466,-0.01873311,-0.99925356
1314272307.60186768,0.03405580,-0.01885578,-0.99924204
1314272307.65384984,0.03397543,-0.01888692,-0.99924419
1314272307.70171118,0.03399990,-0.01905703,-0.99924013
1314272307.75374937,0.03396447,-0.01927073,-0.99923724
1314272307.80546713,0.03453157,-0.01815549,-0.99923868
1314272307.85247278,0.03454201,-0.01798118,-0.99924148
1314272307.90160966,0.03460895,-0.01821346,-0.99923495
1314272307.94548011,0.03467669,-0.01836932,-0.99922975
1314272308.00457883,0.03489165,-0.01834883,-0.99922264
1314272308.05360651,0.03411248,-0.01646313,-0.99928239
1314272308.10158443,0.03435169,-0.01645768,-0.99927429
1314272308.15248942,0.03424801,-0.01661881,-0.99927518
1314272308.20448399,0.03439727,-0.01653899,-0.99927138
1314272308.25394297,0.03429732,-0.01658027,-0.99927413
1314272308.30148911,0.03183787,-0.01565321,-0.99937047
1314272308.35359645,0.03194583,-0.01589604,-0.99936319
1314272308.40448928,0.03181704,-0.01576566,-0.99936936
1314272308.45361304,0.03164600,-0.01564856,-0.99937663
1314272308.50157404,0.03160688,-0.01555718,-0.99937930
1314272308.55350876,0.02891609,-0.01449409,-0.99947675
1314272308.60157967,0.02910508,-0.01459305,-0.99946983
1314272308.65659475,0.02908963,-0.01473176,-0.99946824
1314272308.70064831,0.02926002,-0.01460881,-0.99946507
1314272308.75347161,0.02945556,-0.01442585,-0.99946199
1314272308.80080771,0.02843990,-0.01557048,-0.99947423
1314272308.85356903,0.02873635,-0.01562139,-0.99946495
1314272308.90146494,0.02869259,-0.01551863,-0.99946781
1314272308.94447041,0.02875964,-0.01558226,-0.99946490
1314272309.00051546,0.02867365,-0.01564966,-0.99946631
1314272309.05412436,0.02700866,-0.01488568,-0.99952436
1314272309.10445452,0.02697343,-0.01510496,-0.99952202
1314272309.15361190,0.02711555,-0.01516719,-0.99951724
1314272309.20178556,0.02687937,-0.01514207,-0.99952400
1314272309.25250101,0.02693877,-0.01516415,-0.99952206
1314272309.30146384,0.02651287,-0.01359930,-0.99955596
1314272309.35255170,0.02641971,-0.01363185,-0.99955799
1314272309.40564346,0.02641995,-0.01339698,-0.99956116
1314272309.45660591,0.02635016,-0.01333449,-0.99956384
1314272309.50516534,0.02620613,-0.01349144,-0.99956552
1314272309.55249643,0.02413568,-0.01227432,-0.99963334
1314272309.60445571,0.02425263,-0.01231535,-0.99963000
1314272309.65361452,0.02448749,-0.01232350,-0.99962418
1314272309.70147657,0.02433973,-0.01226178,-0.99962854
1314272309.74244761,0.02446493,-0.01226232,-0.99962548
1314272309.80162978,0.02505615,-0.01109354,-0.99962449
1314272309.85494304,0.02504026,-0.01093675,-0.99962662
1314272309.90161681,0.02534860,-0.01095492,-0.99961865
1314272309.94106317,0.02543239,-0.01084092,-0.99961776
1314272310.00455952,0.02555136,-0.01084959,-0.99961463
1314272310.05259228,0.02510943,-0.01114993,-0.99962253
1314272310.10218287,0.02504810,-0.01125133,-0.99962293
1314272310.15254140,0.02486925,-0.01138019,-0.99962594
1314272310.20166278,0.02487409,-0.01164497,-0.99962277
1314272310.25388384,0.02424059,-0.01163313,-0.99963847
1314272310.30167246,0.02424244,-0.01179910,-0.99963648
1314272310.35360742,0.02420998,-0.01206051,-0.99963414
1314272310.40446019,0.02419781,-0.01213233,-0.99963357
1314272310.45258832,0.02406194,-0.01229818,-0.99963482
1314272310.50199246,0.02413831,-0.01256913,-0.99962961
1314272310.55250025,0.02411495,-0.01267838,-0.99962880
1314272310.60166073,0.02404629,-0.01270570,-0.99963010
1314272310.65651488,0.02417924,-0.01281861,-0.99962545
1314272310.70446801,0.02440380,-0.01291483,-0.99961876
1314272310.75244808,0.02526378,-0.01365028,-0.99958762
1314272310.80097485,0.02560163,-0.01359019,-0.99957984
1314272310.85247779,0.02558297,-0.01368711,-0.99957900
1314272310.90171647,0.02579530,-0.01368086,-0.99957363
1314272310.94446373,0.02573023,-0.01377341,-0.99957403
1314272311.00459003,0.02570786,-0.01376578,-0.99957471
1314272311.05646968,0.02592485,-0.01392600,-0.99956689
1314272311.10447454,0.02586176,-0.01390445,-0.99956882
1314272311.15264201,0.02596781,-0.01397470,-0.99956510
1314272311.20458817,0.02604601,-0.01412205,-0.99956099
1314272311.25259280,0.02625959,-0.01401516,-0.99955691
1314272311.30200672,0.02646402,-0.01416453,-0.99954941
1314272311.35259271,0.02647053,-0.01410659,-0.99955006
1314272311.40447450,0.02658318,-0.01390864,-0.99954984
1314272311.45663023,0.02682909,-0.01389497,-0.99954346
1314272311.50161123,0.02704434,-0.01398128,-0.99953646
1314272311.55261564,0.02817500,-0.01390806,-0.99950625
1314272311.60047603,0.02871989,-0.01368946,-0.99949376
1314272311.65347528,0.02872541,-0.01373548,-0.99949297
1314272311.70157409,0.02880683,-0.01400179,-0.99948693
1314272311.75248718,0.02865101,-0.01391562,-0.99949261
1314272311.80054331,0.02877836,-0.01284143,-0.99950333
1314272311.85382295,0.02896416,-0.01305767,-0.99949516
1314272311.90049601,0.02897091,-0.01304271,-0.99949516
1314272311.94153118,0.02881625,-0.01302859,-0.99949981
1314272312.00094199,0.02885106,-0.01297323,-0.99949953
1314272312.05251241,0.02805130,-0.01126749,-0.99954298
1314272312.10259795,0.02809960,-0.01134786,-0.99954071
1314272312.15410066,0.02815861,-0.01162259,-0.99953590
1314272312.20445204,0.02804231,-0.01139809,-0.99954175
1314272312.25244594,0.02805607,-0.01154698,-0.99953966
1314272312.30546665,0.02712012,-0.01048983,-0.99957714
1314272312.35247564,0.02700984,-0.01039986,-0.99958107
1314272312.40445995,0.02703443,-0.01057843,-0.99957853
1314272312.45246005,0.02688575,-0.01063113,-0.99958198
1314272312.50247383,0.02707874,-0.01091918,-0.99957367
1314272312.55245519,0.02762807,-0.01013645,-0.99956688
1314272312.60446692,0.02784410,-0.01006305,-0.99956162
1314272312.65247774,0.02803753,-0.01058537,-0.99955082
1314272312.70156980,0.02781235,-0.01058638,-0.99955710
1314272312.75246096,0.02779795,-0.01045297,-0.99955891
1314272312.80486369,0.02916443,-0.01120941,-0.99951177
1314272312.85258508,0.02912592,-0.01113676,-0.99951371
1314272312.90161538,0.02906747,-0.01105180,-0.99951635
1314272312.95248079,0.02898688,-0.01123144,-0.99951669
1314272313.00460577,0.02885576,-0.01112318,-0.99952170
1314272313.05539441,0.02896505,-0.01162616,-0.99951281
1314272313.10154819,0.02917804,-0.01172089,-0.99950551
1314272313.15350819,0.02921328,-0.01184111,-0.99950306
1314272313.20450521,0.02920745,-0.01166403,-0.99950532
1314272313.25251627,0.02910178,-0.01177771,-0.99950706
1314272313.30191064,0.03069472,-0.01215409,-0.99945491
1314272313.35360837,0.03059169,-0.01227622,-0.99945657
1314272313.40540743,0.03070337,-0.01224189,-0.99945357
1314272313.45392823,0.03087855,-0.01217077,-0.99944904
1314272313.50545311,0.03085909,-0.01215731,-0.99944981
1314272313.55349994,0.03241589,-0.01186409,-0.99940405
1314272313.60447216,0.03238247,-0.01165858,-0.99940755
1314272313.65331554,0.03239067,-0.01176350,-0.99940606
1314272313.69379330,0.03237891,-0.01159723,-0.99940838
1314272313.75258350,0.03249568,-0.01151228,-0.99940557
1314272313.80152178,0.03288838,-0.01083034,-0.99940035
1314272313.85379601,0.03286139,-0.01077633,-0.99940182
1314272313.90156436,0.03285651,-0.01069245,-0.99940288
1314272313.94160581,0.03273447,-0.01051298,-0.99940879
1314272314.00446558,0.03258600,-0.01071368,-0.99941151
1314272314.05259109,0.03239491,-0.00957325,-0.99942930
1314272314.10151410,0.03250977,-0.00962877,-0.99942504
1314272314.15247631,0.03267117,-0.00944982,-0.99942148
1314272314.20156670,0.03282731,-0.00961143,-0.99941482
1314272314.25655961,0.03280533,-0.00949904,-0.99941662
1314272314.30505538,0.03247075,-0.00875998,-0.99943430
1314272314.35365033,0.03253205,-0.00861077,-0.99943360
1314272314.40049124,0.03261592,-0.00850027,-0.99943181
1314272314.45248294,0.03243366,-0.00852517,-0.99943753
1314272314.50155306,0.03232666,-0.00876041,-0.99943896
1314272314.55248857,0.03328813,-0.00950560,-0.99940059
1314272314.60060406,0.03344134,-0.00959930,-0.99939458
1314272314.65648961,0.03359774,-0.00936782,-0.99939153
1314272314.70062256,0.03351319,-0.00935834,-0.99939446
1314272314.75359392,0.03327547,-0.00919647,-0.99940391
1314272314.80052114,0.03429149,-0.00968511,-0.99936494
1314272314.85248566,0.03412161,-0.00961517,-0.99937143
1314272314.90153050,0.03417293,-0.00957304,-0.99937009
1314272314.95436859,0.03415578,-0.00980745,-0.99936840
1314272315.00150895,0.03440203,-0.00982197,-0.99935981
1314272315.05595517,0.03565180,-0.01127277,-0.99930069
1314272315.10160637,0.03578776,-0.01143531,-0.99929399
1314272315.15291142,0.03596294,-0.01129338,-0.99928931
1314272315.20147204,0.03604282,-0.01139318,-0.99928530
1314272315.25360370,0.03574231,-0.01153368,-0.99929448
1314272315.30148196,0.03624526,-0.01252743,-0.99926440
1314272315.35246825,0.03619397,-0.01277728,-0.99926310
1314272315.40161443,0.03633348,-0.01282207,-0.99925746
1314272315.45423532,0.03620059,-0.01313442,-0.99925823
1314272315.50118279,0.03608870,-0.01305585,-0.99926330
1314272315.55349684,0.03591284,-0.01352664,-0.99926338
1314272315.59243941,0.03605405,-0.01345590,-0.99925925
1314272315.65353203,0.03602906,-0.01344607,-0.99926028
1314272315.69352055,0.03603168,-0.01358870,-0.99925826
1314272315.75258279,0.03603892,-0.01332484,-0.99926155
1314272315.80160332,0.03556820,-0.01368082,-0.99927361
1314272315.85464454,0.03574518,-0.01352271,-0.99926944
1314272315.90562630,0.03574752,-0.01367980,-0.99926722
1314272315.94448471,0.03557389,-0.01373192,-0.99927270
1314272316.00546336,0.03564244,-0.01363979,-0.99927152
1314272316.05375719,0.03526191,-0.01403791,-0.99927951
1314272316.10170650,0.03519686,-0.01395914,-0.99928290
1314272316.15254164,0.03542812,-0.01415578,-0.99927197
1314272316.20476460,0.03550551,-0.01431821,-0.99926691
1314272316.25638127,0.03546095,-0.01424574,-0.99926952
1314272316.30469227,0.03520014,-0.01493703,-0.99926865
1314272316.35250783,0.03545789,-0.01503767,-0.99925803
1314272316.40462852,0.03536767,-0.01521016,-0.99925861
1314272316.45258832,0.03542897,-0.01527507,-0.99925545
1314272316.50181174,0.03530428,-0.01514650,-0.99926182
1314272316.55245972,0.03512498,-0.01631657,-0.99924972
1314272316.60161328,0.03500415,-0.01634223,-0.99925354
1314272316.65645480,0.03497531,-0.01650220,-0.99925192
1314272316.70451069,0.03503279,-0.01642553,-0.99925117
1314272316.75249267,0.03505430,-0.01644130,-0.99925016
1314272316.80551457,0.03493457,-0.01731358,-0.99923962
1314272316.85260463,0.03515779,-0.01727754,-0.99923241
1314272316.90165663,0.03533174,-0.01737268,-0.99922463
1314272316.94149423,0.03533645,-0.01742605,-0.99922353
1314272317.00451684,0.03545702,-0.01753219,-0.99921740
1314272317.05605125,0.03473808,-0.01766385,-0.99924034
1314272317.10447049,0.03462958,-0.01785237,-0.99924075
1314272317.15259862,0.03448204,-0.01789785,-0.99924504
1314272317.20447922,0.03453966,-0.01784123,-0.99924407
1314272317.25276017,0.03431494,-0.01783336,-0.99925195
1314272317.30162835,0.03375560,-0.01697559,-0.99928594
1314272317.35248995,0.03357095,-0.01695503,-0.99929251
1314272317.40151978,0.03364826,-0.01701772,-0.99928884
1314272317.44616485,0.03364022,-0.01695367,-0.99929020
1314272317.50449347,0.03346000,-0.01688848,-0.99929736
1314272317.55244732,0.03286443,-0.01599354,-0.99933184
1314272317.60481286,0.03298452,-0.01578468,-0.99933121
1314272317.65244675,0.03311924,-0.01564813,-0.99932890
1314272317.69352531,0.03301856,-0.01559862,-0.99933301
1314272317.75263309,0.03302363,-0.01587094,-0.99932855
1314272317.80060458,0.03294060,-0.01628585,-0.99932462
1314272317.85457468,0.03293787,-0.01614575,-0.99932698
1314272317.90169215,0.03289020,-0.01602099,-0.99933056
1314272317.94151354,0.03305790,-0.01581338,-0.99932833
1314272318.00047040,0.03312754,-0.01588865,-0.99932483
1314272318.05376244,0.03299868,-0.01690489,-0.99931242
1314272318.10159492,0.03320750,-0.01701567,-0.99930362
1314272318.15251875,0.03294683,-0.01725726,-0.99930811
1314272318.20461130,0.03319509,-0.01716142,-0.99930154
1314272318.25661802,0.03321013,-0.01691368,-0.99930527
1314272318.30469036,0.03272038,-0.01742215,-0.99931269
1314272318.35249662,0.03261719,-0.01727393,-0.99931863
1314272318.40149951,0.03249264,-0.01727405,-0.99932269
1314272318.44161558,0.03243104,-0.01705934,-0.99932838
1314272318.50192451,0.03249808,-0.01710771,-0.99932537
1314272318.55251050,0.03128906,-0.01687802,-0.99936786
1314272318.60461640,0.03145750,-0.01685864,-0.99936290
1314272318.65380549,0.03139600,-0.01658733,-0.99936938
1314272318.69361520,0.03136312,-0.01659990,-0.99937020
1314272318.75247812,0.03140604,-0.01642515,-0.99937174
1314272318.80445576,0.03055804,-0.01594524,-0.99940580
1314272318.85360909,0.03070556,-0.01587203,-0.99940245
1314272318.90210581,0.03073782,-0.01588445,-0.99940126
1314272318.94458938,0.03071688,-0.01590913,-0.99940151
1314272319.00465465,0.03080672,-0.01603143,-0.99939679
1314272319.05631161,0.03002349,-0.01641939,-0.99941433
1314272319.10451722,0.03001496,-0.01669560,-0.99941001
1314272319.15258718,0.03045310,-0.01665602,-0.99939741
1314272319.20159936,0.03051930,-0.01676666,-0.99939354
1314272319.25352526,0.03064321,-0.01683807,-0.99938855
1314272319.30195928,0.03078645,-0.01705191,-0.99938052
1314272319.35397935,0.03064446,-0.01714528,-0.99938329
1314272319.40153837,0.03033914,-0.01710973,-0.99939321
1314272319.45403051,0.03011375,-0.01725747,-0.99939749
1314272319.50563145,0.03017135,-0.01702087,-0.99939981
1314272319.55363297,0.03165557,-0.01731298,-0.99934888
1314272319.60451126,0.03164565,-0.01750991,-0.99934576
1314272319.65362072,0.03156152,-0.01736519,-0.99935095
1314272319.69387841,0.03153431,-0.01736297,-0.99935185
1314272319.75360847,0.03135420,-0.01734850,-0.99935777
1314272319.80465698,0.03215227,-0.01753790,-0.99932910
1314272319.85071611,0.03204085,-0.01756127,-0.99933227
1314272319.90127516,0.03187935,-0.01769113,-0.99933514
1314272319.94163632,0.03176488,-0.01773708,-0.99933797
1314272320.00446892,0.03182049,-0.01770425,-0.99933679
1314272320.05258894,0.03210379,-0.01802247,-0.99932204
1314272320.10154843,0.03229951,-0.01824493,-0.99931170
1314272320.15250349,0.03230507,-0.01817749,-0.99931274
1314272320.19342542,0.03229631,-0.01814183,-0.99931368
